User: anonymous   Login
Location: Asheville, NC
(35.6000°N, 82.5500°W)
Time: 20:35:46
(UTC-04:00)
Language:

UNISAT 6 - Orbit

View from above orbital plane
View from above orbital plane
View from above satellite
View from above satellite

Ground track
Ground track

The orbit data is extracted from the following two-line orbital elements,

1 40012U 14033C   18198.22243574  .00000153  00000-0  30167-4 0  9994
2 40012  97.8043  73.3752 0059895 102.2252 258.5673 14.73838080219120
Epoch (UTC): 17 July 2018 05:20:18
Eccentricity: 0.0059895
inclination: 97.8043°
perigee height: 607 km
apogee height: 691 km
right ascension of ascending node: 73.3752°
argument of perigee: 102.2252°
revolutions per day: 14.73838080
mean anomaly at epoch: 258.5673°
orbit number at epoch: 21912

The dashed part of the orbit path shows where the satellite is in the earth's shadow,  

DLR